Flag Weather past 2 weeks in Medford, Oregon, U.S.A.

Now
45 °F

Fog.


Feels Like: 42 °F
Forecast: 41 / 57 °F
Wind: 6 mph from North

Location: Rogue Valley International Airport

Current Time: Nov 26, 2014 at 8:45:39 AM

Latest Report: Nov 26, 2014 at 7:53 AM


Visibility: 2 mi

Pressure: 30.31 "Hg

Humidity: 97%

Dew point: 44 °F

Location of MedfordLocation

Historic Weather in Medford — Graph

°F

Medford temperature yesterday

Maximum temperature yesterday: 58 °F (at 2:53 PM)
Minimum temperature yesterday: 41 °F (at 12:53 AM)
Average temperature yesterday: 48 °F

Past Weeks' High & Low Weather Summary

 TemperatureHumidityPressure
High62 °F (Nov 14, 1:53 PM)100% (Nov 20, 4:53 AM)30.52 "Hg (Nov 20, 4:53 AM)
Low25 °F (Nov 17, 5:53 AM)27% (Nov 16, 2:53 PM)29.75 "Hg (Nov 21, 9:53 PM)
Average45 °F79%30.15 "Hg
* Reported Nov 11 6:53 AM — Nov 26 6:53 AM, Medford, Weather by CustomWeather, © 2014

Note: Actual official high and low records may vary slightly from our data, if they occured in-between our weather recording intervals... More about our weather records

Advertising

Medford weather history for previous 24 hours

 ConditionsComfort  
Time TempWeatherWind HumidityBarometerVisibility
6:53 AM
Nov 26
45 °FFog.No wind97%30.32 "Hg2 mi
5:53 AM45 °FFog.6 mph97%30.33 "Hg2 mi
4:53 AM45 °FFog.3 mph100%30.33 "Hg1 mi
4:01 AM45 °FFog.No wind97%30.34 "Hg1 mi
3:53 AM45 °FFog.No wind97%30.34 "Hg2 mi
2:53 AM45 °FFog.No wind97%30.36 "Hg4 mi
1:53 AM45 °FOvercast.No wind93%30.37 "Hg10 mi
12:53 AM44 °FOvercast.5 mph93%30.37 "Hg9 mi
11:53 PM
Nov 25
43 °FOvercast.No wind97%30.38 "Hg7 mi
10:53 PM42 °FPassing clouds.No wind92%30.39 "Hg7 mi
9:53 PM43 °FClear.No wind93%30.40 "Hg8 mi
8:53 PM45 °FPassing clouds.3 mph90%30.40 "Hg10 mi
7:53 PM47 °FPassing clouds.No wind90%30.41 "Hg10 mi
6:53 PM50 °FPassing clouds.5 mph86%30.41 "Hg10 mi
5:53 PM51 °FPassing clouds.5 mph86%30.41 "Hg10 mi
4:53 PM55 °FPassing clouds.No wind77%30.41 "Hg10 mi
3:53 PM58 °FSunny.No wind70%30.41 "Hg10 mi
2:53 PM58 °FScattered clouds.No wind70%30.42 "Hg10 mi
1:53 PM57 °FScattered clouds.No wind69%30.44 "Hg10 mi
12:53 PM56 °FScattered clouds.3 mph70%30.46 "Hg10 mi
11:53 AM53 °FMostly cloudy.5 mph74%30.49 "Hg10 mi
10:53 AM50 °FMostly cloudy.3 mph80%30.51 "Hg10 mi
9:53 AM49 °FOvercast.No wind80%30.52 "Hg10 mi
8:53 AM46 °FMostly cloudy.No wind89%30.52 "Hg9 mi
Weather by CustomWeather, © 2014

See weather overviewHow to use our weather pages